Location: Newark
(33.6439°N, 114.9881°W)
Time: 08:31:19
(UTC+00:00)

Transit 2A Rocket - Pass Details

Date: 26 August 2019
Orbit: 592 x 911 km, 66.7° (Epoch: 19 September)

Event Time Altitude Azimuth Distance (km) Brightness Sun altitude
Rises 12:16:58 0° 315° (NW) 2,898 7.8 -11.3°
Reaches altitude 10° 12:19:52 10° 296° (WNW) 1,954 6.7 -10.8°
Maximum altitude 12:22:46 18° 254° (WSW) 1,498 5.9 -10.2°
Drops below altitude 10° 12:25:36 10° 211° (SSW) 1,914 6.6 -9.6°
Sets 12:28:26 0° 192° (SSW) 2,812 7.6 -9.1°
